sat.trackr.live / text

‹ back to catalog

STARLINK-5499

NORAD 55764 · 2023-028Z

PAYLOAD ACTIVE UNKNOWN

§ Identity

Operator
Country
US
Launch date
2023-03-03
Launch site
AFWTR
Launch vehicle
Mass (kg)
RCS (m²)

Purposes: comms

External: N2YO · Heavens-Above · Gunter

§ Orbital elements

Epoch: 2026-09-20T22:06:48.703392Z

Period
96.11 min
Inclination
69.9982°
Eccentricity
0.0002817
Mean motion
14.98329106 rev/d
Perigee alt
570.1 km
Apogee alt
574.0 km
Semi-major
6,950.2 km
B*
-8.1913e-6
RAAN
92.3427°
Arg perigee
271.8340°
Mean anomaly
88.2496°
Rev number
19,577

§ Raw data

STARLINK-54991 55764U 23028Z   26263.92139703 -.00000191  00000+0 -81913-5 0  99942 55764  69.9982  92.3427 0002817 271.8340  88.2496 14.98329106195771

JSON: /api/v1/satellites/55764 · /tle

For live sub-satellite position, see the globe view (requires WebGL).

§ Visibility from observer

Set your observer location to see the next 7 days of passes ≥ 10°. The values pass through the URL so the page stays shareable.

No JS? Fill the form by hand. The geolocation button needs JavaScript.